User: anonymous   Login
Location: Unspecified
(0.0000°N, 0.0000°E)
Time: 19:12:59
(UTC+00:00)
Language:

Fermi - Orbit

View from above orbital plane
View from above orbital plane
View from above satellite
View from above satellite

Ground track
Ground track

The orbit data is extracted from the following two-line orbital elements,

1 33053U 08029A   19051.57017391  .00000463  00000-0  97059-5 0  9990
2 33053  25.5824 148.4088 0012280 177.4095 182.6505 15.11184395590202
Epoch (UTC): 20 February 2019 13:41:03
Eccentricity: 0.0012280
inclination: 25.5824°
perigee height: 524 km
apogee height: 541 km
right ascension of ascending node: 148.4088°
argument of perigee: 177.4095°
revolutions per day: 15.11184395
mean anomaly at epoch: 182.6505°
orbit number at epoch: 59020

The dashed part of the orbit path shows where the satellite is in the earth's shadow,  

DLR